カタログに戻る

DELTA 1 DEB

運用中SSO
NORAD 37670·DEBRIS·🇺🇸 United States

打ち上げ Mar 5, 1978 から Vandenberg Space Force Base

Loading…

次のパス (今後24時間)

TLE

最新Source: Space-Track

元期: Sep 11, 2026, 23:06 UTC

1 37670U 78026KH  26254.96295217  .00000017  00000-0  50445-4 0  9996
2 37670  99.0090 150.2061 0070144 274.1143  85.2000 13.87272776665625

AllMySatでDELTA 1 DEBをリアルタイム追跡

Download on the App Store